This is the latest recevied weather packets stored in our database for station/object WA0GMH-1. If no packets are shown the sender has not sent any weather packets the latest 10 day(s).
| Time | Temp. | Humidity | Pressure | Rain* | Wind** | Luminosity | Snow |
|---|---|---|---|---|---|---|---|
| 1777499140 | 17.78° C | 9% | 1016.4 hPa | 0 mm | - | - | - |
| 1777498738 | 18.33° C | 9% | 1016.5 hPa | 0 mm | - | - | - |
| 1777498336 | 18.89° C | 8% | 1016.3 hPa | 0 mm | - | - | - |
| 1777497934 | 19.44° C | 8% | 1016.5 hPa | 0 mm | - | - | - |
| 1777497531 | 19.44° C | 9% | 1016.7 hPa | 0 mm | - | - | - |
| 1777497130 | 19.44° C | 10% | 1016.7 hPa | 0 mm | - | - | - |
| 1777496727 | 19.44° C | 9% | 1016.8 hPa | 0 mm | - | - | - |
| 1777496325 | 19.44° C | 11% | 1017 hPa | 0 mm | - | - | - |
| 1777495922 | 18.89° C | 11% | 1017.1 hPa | 0 mm | - | - | - |
| 1777495520 | 18.89° C | 12% | 1017.3 hPa | 0 mm | - | - | - |
| 1777495118 | 18.89° C | 13% | 1017.4 hPa | 0 mm | - | - | - |
| 1777494716 | 18.89° C | 14% | 1017.4 hPa | 0 mm | - | - | - |
| 1777494313 | 18.33° C | 15% | 1017.6 hPa | 0 mm | - | - | - |
| 1777493912 | 18.33° C | 14% | 1017.7 hPa | 0 mm | - | - | - |
| 1777493509 | 17.78° C | 15% | 1018.1 hPa | 0 mm | - | - | - |
| 1777493107 | 17.78° C | 15% | 1018.1 hPa | 0 mm | - | - | - |
| 1777492704 | 17.22° C | 19% | 1018.1 hPa | 0 mm | - | - | - |
| 1777492303 | 17.22° C | 20% | 1018.4 hPa | 0 mm | - | - | - |
| 1777491900 | 16.67° C | 20% | 1018.4 hPa | 0 mm | - | - | - |
| 1777491498 | 16.67° C | 22% | 1018.4 hPa | 0 mm | - | - | - |
| 1777491095 | 16.11° C | 21% | 1018.4 hPa | 0 mm | - | - | - |
| 1777490694 | 16.11° C | 22% | 1018.4 hPa | 0 mm | - | - | - |
| 1777490291 | 15.56° C | 22% | 1018.6 hPa | 0 mm | - | - | - |
| 1777489889 | 15.56° C | 19% | 1018.8 hPa | 0 mm | - | - | - |
| 1777489486 | 15.56° C | 22% | 1018.9 hPa | 0 mm | - | - | - |
* Rain since midnight (hover to see other rain measurements)
** Current wind speed in m/s (hover to see current wind gust speed)